1487635200.22,18830,11.88,72562.8,-5.43,-6.39,-6.27,0,*5F
1487635201.47,18831,11.88,72558.0,-5.43,-6.27,-6.27,0,*51
1487635202.71,18832,11.88,72562.5,-5.43,-6.27,-6.27,0,*52
1487635203.93,18833,11.81,72534.0,-5.43,-6.27,-6.35,0,*50
1487635205.13,18834,11.88,72526.3,-5.43,-6.35,-6.35,0,*54
1487635206.38,18835,11.88,72580.0,-5.43,-6.27,-6.27,0,*55
1487635207.6,18836,11.81,72578.0,-5.43,-6.27,-6.35,0,*55
1487635208.8,18837,11.88,72606.8,-5.43,-6.47,-6.59,0,*58
1487635210.02,18838,11.88,72562.5,-5.43,-6.63,-6.85,0,*50
1487635211.21,18839,11.88,72552.3,-5.43,-6.73,-6.85,0,*50
1487635212.46,18840,11.81,72538.8,-5.43,-7.01,-7.01,0,*57
1487635213.69,18841,11.81,72574.5,-5.43,-6.51,-6.63,0,*57
1487635214.89,18842,11.81,72562.8,-5.43,-6.47,-6.59,0,*5A
1487635216.09,18843,11.88,72578.3,-5.43,-6.59,-6.73,0,*5C
1487635217.31,18844,11.81,72574.5,-5.45,-6.39,-6.39,0,*55
1487635218.58,18845,11.88,72558.3,-5.45,-6.23,-6.23,0,*54
1487635219.78,18846,11.88,72538.5,-5.43,-6.39,-6.35,0,*5D
1487635220.98,18847,11.88,72534.0,-5.43,-6.51,-6.51,0,*50
1487635222.2,18848,11.88,72526.5,-5.43,-6.73,-6.63,0,*5E
1487635223.43,18849,11.81,72540.5,-5.43,-6.73,-6.63,0,*5F
1487635224.63,18850,11.88,72558.3,-5.43,-6.77,-6.73,0,*52
1487635225.9,18851,11.88,72542.5,-5.45,-6.93,-7.01,0,*5B
1487635227.18,18852,11.88,72568.0,-5.45,-6.93,-6.93,0,*52
1487635228.43,18853,11.81,72548.8,-5.45,-6.89,-6.93,0,*58
1487635229.68,18854,11.81,72554.5,-5.45,-6.89,-7.01,0,*55
1487635230.93,18855,11.88,72580.8,-5.45,-6.77,-7.01,0,*55
1487635232.19,18856,11.88,72562.8,-5.45,-7.01,-7.15,0,*53
1487635233.44,18857,11.88,72556.3,-5.45,-7.05,-7.19,0,*5A
1487635234.67,18858,11.88,72564.8,-5.45,-7.19,-7.23,0,*51
1487635235.9,18859,11.81,72562.0,-5.45,-7.15,-7.15,0,*59
1487635237.17,18860,11.81,72566.5,-5.45,-7.05,-7.05,0,*53
1487635238.42,18861,11.88,72576.0,-5.45,-7.05,-7.15,0,*53
1487635239.65,18862,11.88,72560.3,-5.49,-7.11,-7.11,0,*5D
1487635240.88,18863,11.81,72520.5,-5.49,-7.11,-7.11,0,*5C
1487635242.15,18864,11.81,72480.8,-5.45,-7.01,-6.93,0,*5D
1487635243.4,18865,11.81,72486.3,-5.49,-6.85,-6.93,0,*5D
1487635244.63,18866,11.88,72514.8,-5.45,-6.81,-6.77,0,*5C
1487635245.84,18867,11.81,72522.3,-5.45,-6.69,-6.69,0,*54
1487635247.12,18868,11.88,72538.8,-5.49,-6.93,-6.97,0,*53
1487635248.35,18869,11.88,72560.3,-5.49,-6.85,-6.81,0,*52
1487635249.61,18870,11.88,72542.5,-5.49,-6.97,-7.05,0,*54
1487635250.85,18871,11.88,72548.8,-5.49,-7.11,-7.23,0,*5E
1487635252.07,18872,11.88,72548.8,-5.49,-7.11,-7.19,0,*54
1487635253.33,18873,11.88,72554.3,-5.49,-7.05,-7.11,0,*58
1487635254.6,18874,11.81,72560.3,-5.49,-7.05,-6.97,0,*50
1487635255.85,18875,11.81,72570.5,-5.51,-6.97,-6.93,0,*56
1487635257.1,18876,11.81,72550.8,-5.51,-6.93,-6.97,0,*55
1487635258.34,18877,11.81,72510.0,-5.51,-6.97,-7.05,0,*5A
1487635259.57,18878,11.88,72466.5,-5.53,-7.11,-7.15,0,*59
1487635260.81,18879,11.88,72488.3,-5.51,-7.05,-7.05,0,*5E
1487635262.04,18880,11.88,72542.5,-5.53,-7.15,-7.11,0,*5E
1487635263.27,18881,11.88,72542.8,-5.53,-6.89,-6.89,0,*5B
1487635264.5,18882,11.88,72546.8,-5.53,-6.77,-6.77,0,*58
1487635265.77,18883,11.88,72534.0,-5.53,-6.63,-6.63,0,*59
1487635267.04,18884,11.81,72518.3,-5.53,-6.63,-6.63,0,*5E
1487635268.28,18885,11.81,72520.0,-5.53,-6.63,-6.73,0,*5E
1487635269.53,18886,11.88,72500.0,-5.53,-6.63,-6.73,0,*5D
1487635270.73,18887,11.88,72510.3,-5.51,-6.59,-6.59,0,*5F
1487635271.93,18888,11.88,72512.0,-5.51,-6.55,-6.55,0,*50
1487635273.17,18889,11.81,72512.5,-5.53,-6.63,-6.73,0,*52
1487635274.37,18890,11.88,72534.0,-5.51,-6.55,-6.59,0,*55
1487635275.6,18891,11.81,72510.0,-5.53,-6.59,-6.59,0,*5A
1487635276.84,18892,11.81,72448.8,-5.53,-6.63,-6.73,0,*58
1487635278.07,18893,11.81,72386.5,-5.53,-6.77,-6.77,0,*58
1487635279.27,18894,11.81,72414.0,-5.51,-6.81,-6.69,0,*5B
1487635280.52,18895,11.88,72456.3,-5.53,-6.63,-6.51,0,*5F
1487635281.72,18896,11.88,72516.3,-5.51,-6.59,-6.47,0,*50
1487635282.92,18897,11.88,72556.8,-5.51,-6.47,-6.43,0,*5A
1487635284.12,18898,11.88,72544.0,-5.51,-6.35,-6.35,0,*51
1487635285.32,18899,11.88,72572.0,-5.51,-6.35,-6.35,0,*50
1487635286.55,18900,11.81,72602.3,-5.51,-6.31,-6.27,0,*56
1487635287.8,18901,11.81,72576.8,-5.51,-6.27,-6.19,0,*5D
1487635289.02,18902,11.88,72570.8,-5.51,-5.89,-6.01,0,*50
1487635290.24,18903,11.81,72550.5,-5.51,-5.93,-6.01,0,*5A
1487635291.44,18904,11.81,72512.0,-5.51,-6.01,-6.05,0,*51
1487635292.63,18905,11.81,72470.0,-5.51,-6.05,-6.01,0,*50
1487635293.88,18906,11.88,72492.5,-5.51,-5.89,-5.89,0,*57
1487635295.14,18907,11.81,72530.0,-5.51,-5.93,-5.89,0,*5D
1487635296.42,18908,11.88,72524.8,-5.45,-5.85,-5.85,0,*5C
1487635297.7,18909,11.88,72516.0,-5.49,-5.93,-5.93,0,*51
1487635298.95,18910,11.88,72532.0,-5.49,-6.01,-5.93,0,*51
1487635300.22,18911,11.88,72526.8,-5.45,-5.77,-5.73,0,*50
1487635301.48,18912,11.88,72560.8,-5.49,-5.69,-5.55,0,*54
1487635302.73,18913,11.81,72552.3,-5.45,-5.61,-5.47,0,*52
1487635304.01,18914,11.88,72560.5,-5.45,-5.65,-5.65,0,*51
1487635305.29,18915,11.81,72532.8,-5.45,-5.65,-5.61,0,*54
1487635306.56,18916,11.88,72554.5,-5.45,-5.77,-5.77,0,*53
1487635307.84,18917,11.88,72536.5,-5.45,-5.89,-5.89,0,*52
1487635309.1,18918,11.81,72518.8,-5.45,-5.97,-5.85,0,*5E
1487635310.35,18919,11.88,72524.3,-5.43,-5.69,-5.81,0,*5C
1487635311.62,18920,11.88,72540.8,-5.45,-5.77,-5.77,0,*56
1487635312.85,18921,11.88,72556.5,-5.45,-6.01,-6.01,0,*57
1487635314.04,18922,11.88,72556.5,-5.43,-5.97,-5.97,0,*52
1487635315.27,18923,11.81,72568.3,-5.45,-6.01,-5.97,0,*59
1487635316.54,18924,11.88,72566.0,-5.45,-6.27,-6.27,0,*52
1487635317.81,18925,11.88,72564.5,-5.45,-6.27,-6.27,0,*53
1487635319.06,18926,11.88,72572.0,-5.45,-6.13,-6.23,0,*53
1487635320.3,18927,11.88,72576.5,-5.43,-6.23,-6.23,0,*57
1487635321.52,18928,11.88,72578.5,-5.45,-6.31,-6.39,0,*56
1487635322.75,18929,11.88,72570.3,-5.45,-6.43,-6.51,0,*5C
1487635323.98,18930,11.88,72574.3,-5.45,-6.43,-6.43,0,*57
1487635325.21,18931,11.88,72572.0,-5.45,-6.51,-6.51,0,*56
1487635326.44,18932,11.88,72562.5,-5.45,-6.51,-6.55,0,*51
1487635327.68,18933,11.88,72570.8,-5.45,-6.51,-6.43,0,*57
1487635328.91,18934,11.81,72556.5,-5.45,-6.51,-6.51,0,*53
1487635330.14,18935,11.81,72542.3,-5.45,-6.51,-6.43,0,*51
1487635331.36,18936,11.81,72552.0,-5.45,-6.43,-6.39,0,*5C
1487635332.6,18937,11.88,72554.5,-5.45,-6.31,-6.31,0,*50
1487635333.87,18938,11.88,72540.5,-5.45,-6.27,-6.27,0,*5F
1487635335.14,18939,11.88,72576.0,-5.45,-6.23,-6.23,0,*5E
1487635336.38,18940,11.88,72564.3,-5.45,-6.13,-6.23,0,*53
1487635337.64,18941,11.88,72584.3,-5.45,-6.09,-6.23,0,*59
1487635338.91,18942,11.88,72586.5,-5.45,-6.23,-6.27,0,*56
1487635340.14,18943,11.88,72556.3,-5.45,-6.51,-6.39,0,*5D
1487635341.39,18944,11.81,72574.8,-5.45,-6.31,-6.27,0,*53
1487635342.66,18945,11.88,72568.8,-5.45,-6.23,-6.23,0,*55
1487635343.93,18946,11.88,72516.0,-5.45,-6.27,-6.27,0,*56
1487635345.17,18947,11.88,72516.3,-5.43,-6.23,-6.23,0,*51
1487635346.42,18948,11.81,72576.0,-5.43,-6.23,-6.23,0,*5E
1487635347.68,18949,11.81,72570.8,-5.45,-6.27,-6.23,0,*5D
1487635348.91,18950,11.88,72600.0,-5.45,-6.31,-6.39,0,*59
1487635350.13,18951,11.88,72588.5,-5.45,-6.31,-6.43,0,*55
1487635351.37,18952,11.88,72608.5,-5.45,-6.39,-6.31,0,*5B
1487635352.59,18953,11.88,72588.5,-5.45,-6.31,-6.31,0,*52
1487635353.81,18954,11.88,72566.5,-5.45,-6.39,-6.39,0,*55
1487635355.04,18955,11.88,72582.0,-5.45,-6.51,-6.39,0,*5A
1487635356.27,18956,11.88,72570.8,-5.45,-6.43,-6.31,0,*52
1487635357.5,18957,11.81,72562.8,-5.45,-6.31,-6.31,0,*56
1487635358.73,18958,11.88,72552.3,-5.45,-6.31,-6.39,0,*51
1487635359.96,18959,11.88,72570.8,-5.45,-6.39,-6.43,0,*55
1487635361.18,18960,11.81,72564.8,-5.45,-6.43,-6.51,0,*51
1487635362.41,18961,11.81,72560.0,-5.45,-6.43,-6.55,0,*54
1487635363.64,18962,11.81,72540.8,-5.45,-6.43,-6.43,0,*50
1487635364.89,18963,11.81,72590.8,-5.45,-6.63,-6.51,0,*50
1487635366.12,18964,11.88,72594.8,-5.45,-6.51,-6.51,0,*56
1487635367.34,18965,11.88,72590.0,-5.45,-6.39,-6.43,0,*5A
1487635368.57,18966,11.88,72580.0,-5.45,-6.31,-6.39,0,*5C
1487635369.79,18967,11.88,72590.3,-5.49,-6.43,-6.43,0,*59
1487635371.02,18968,11.81,72566.8,-5.45,-6.39,-6.51,0,*54
1487635372.24,18969,11.88,72566.3,-5.45,-6.39,-6.43,0,*56
1487635373.47,18970,11.81,72584.0,-5.45,-6.43,-6.43,0,*53
1487635374.7,18971,11.81,72584.0,-5.45,-6.43,-6.43,0,*52
1487635375.92,18972,11.88,72578.0,-5.49,-6.55,-6.47,0,*5E
1487635377.16,18973,11.88,72554.0,-5.45,-6.51,-6.43,0,*53
1487635378.39,18974,11.88,72542.8,-5.45,-6.31,-6.31,0,*57
1487635379.62,18975,11.81,72568.0,-5.45,-6.31,-6.31,0,*56
1487635380.89,18976,11.88,72532.0,-5.45,-6.27,-6.23,0,*51
1487635382.16,18977,11.88,72562.3,-5.45,-6.23,-6.27,0,*50
1487635383.4,18978,11.88,72598.5,-5.45,-6.27,-6.09,0,*57
1487635384.65,18979,11.88,72600.8,-5.45,-6.23,-6.09,0,*52
1487635385.92,18980,11.88,72572.8,-5.45,-6.27,-6.27,0,*5C
1487635387.19,18981,11.81,72568.8,-5.45,-6.23,-6.27,0,*59
1487635388.42,18982,11.88,72582.3,-5.45,-6.13,-6.13,0,*5E
1487635389.64,18983,11.88,72570.3,-5.45,-6.09,-6.13,0,*54
1487635390.84,18984,11.88,72564.3,-5.43,-6.09,-6.09,0,*5E
1487635392.09,18985,11.88,72572.5,-5.45,-6.09,-6.23,0,*51
1487635393.34,18986,11.88,72588.8,-5.45,-6.13,-6.27,0,*5D
1487635394.57,18987,11.88,72588.3,-5.43,-6.09,-6.23,0,*55
1487635395.81,18988,11.81,72584.0,-5.43,-6.23,-6.19,0,*5B
1487635397.09,18989,11.88,72580.5,-5.45,-6.23,-6.23,0,*55
1487635398.31,18990,11.88,72574.3,-5.43,-6.13,-6.23,0,*58
1487635399.55,18991,11.88,72558.3,-5.43,-6.23,-6.23,0,*5A
1487635400.82,18992,11.88,72554.5,-5.45,-6.27,-6.27,0,*5F
1487635402.07,18993,11.81,72546.8,-5.43,-6.23,-6.19,0,*51
1487635403.32,18994,11.81,72530.8,-5.43,-6.19,-6.19,0,*5F
1487635404.58,18995,11.88,72546.5,-5.43,-6.19,-6.19,0,*5E
1487635405.82,18996,11.88,72522.8,-5.45,-6.23,-6.13,0,*58
1487635407.07,18997,11.88,72536.0,-5.43,-6.19,-6.23,0,*55
1487635408.31,18998,11.88,72528.5,-5.43,-6.23,-6.23,0,*53
1487635409.59,18999,11.88,72536.3,-5.45,-6.23,-6.27,0,*50
1487635410.82,19000,11.81,72584.0,-5.45,-6.35,-6.43,0,*5D
1487635412.02,19001,11.88,72582.3,-5.43,-6.59,-6.59,0,*5B
1487635413.22,19002,11.88,72572.8,-5.43,-6.59,-6.51,0,*50
1487635414.45,19003,11.88,72566.5,-5.45,-6.51,-6.51,0,*5F
1487635415.66,19004,11.88,72554.5,-5.43,-6.51,-6.59,0,*56
1487635416.9,19005,11.88,72558.0,-5.45,-6.63,-6.77,0,*5C
1487635418.13,19006,11.88,72582.8,-5.45,-6.77,-6.89,0,*5B
1487635419.37,19007,11.88,72578.5,-5.45,-6.77,-6.81,0,*52
1487635420.56,19008,11.81,72574.8,-5.43,-6.73,-6.73,0,*52
1487635421.78,19009,11.88,72562.8,-5.45,-6.69,-6.69,0,*55
1487635423.0,19010,11.88,72566.3,-5.45,-6.69,-6.55,0,*52
1487635424.25,19011,11.88,72568.8,-5.45,-6.63,-6.55,0,*59
1487635425.5,19012,11.88,72550.8,-5.45,-6.55,-6.63,0,*5A
1487635426.75,19013,11.88,72532.0,-5.45,-6.77,-6.63,0,*5B
1487635427.98,19014,11.81,72530.0,-5.45,-6.55,-6.55,0,*59
1487635429.23,19015,11.88,72528.5,-5.45,-6.55,-6.63,0,*5D
1487635430.5,19016,11.88,72512.3,-5.45,-6.63,-6.63,0,*5B
1487635431.73,19017,11.81,72542.0,-5.45,-6.39,-6.43,0,*57
1487635432.96,19018,11.88,72564.0,-5.45,-6.51,-6.43,0,*56
1487635434.19,19019,11.88,72560.8,-5.45,-6.51,-6.55,0,*50
1487635435.45,19020,11.88,72556.3,-5.45,-6.51,-6.63,0,*5F
1487635436.68,19021,11.88,72550.3,-5.45,-6.51,-6.55,0,*5B
1487635437.91,19022,11.88,72550.3,-5.45,-6.51,-6.55,0,*58
1487635439.14,19023,11.88,72538.8,-5.45,-6.51,-6.55,0,*59
1487635440.41,19024,11.88,72534.8,-5.45,-6.63,-6.63,0,*5A
1487635441.64,19025,11.88,72530.8,-5.45,-6.55,-6.51,0,*5F
1487635442.87,19026,11.88,72550.5,-5.45,-6.43,-6.51,0,*5B
1487635444.12,19027,11.88,72548.3,-5.45,-6.63,-6.55,0,*5C
1487635445.34,19028,11.88,72552.0,-5.45,-6.77,-6.69,0,*59
1487635446.57,19029,11.88,72582.0,-5.49,-6.47,-6.55,0,*58
1487635447.79,19030,11.81,72536.0,-5.45,-6.39,-6.51,0,*51
1487635449.02,19031,11.88,72510.0,-5.45,-6.43,-6.43,0,*5E
1487635450.24,19032,11.81,72496.3,-5.49,-6.43,-6.43,0,*51
1487635451.47,19033,11.88,72512.5,-5.49,-6.35,-6.35,0,*50
1487635452.72,19034,11.88,72514.3,-5.49,-6.31,-6.27,0,*50
1487635453.94,19035,11.81,72518.0,-5.45,-6.13,-6.01,0,*59
1487635455.17,19036,11.88,72542.5,-5.45,-6.09,-6.01,0,*51
1487635456.39,19037,11.88,72554.3,-5.45,-5.97,-6.01,0,*54
1487635457.62,19038,11.88,72550.3,-5.45,-6.01,-5.97,0,*5B
1487635458.84,19039,11.88,72538.3,-5.49,-6.01,-6.01,0,*5A
1487635460.06,19040,11.81,72562.0,-5.45,-6.01,-5.97,0,*54
1487635461.28,19041,11.88,72566.3,-5.45,-6.01,-6.01,0,*59
1487635462.51,19042,11.88,72584.5,-5.45,-6.01,-5.97,0,*56
1487635463.73,19043,11.88,72512.0,-5.45,-6.09,-6.01,0,*53
1487635464.96,19044,11.88,72518.5,-5.45,-5.97,-5.97,0,*5C
1487635466.18,19045,11.88,72548.8,-5.45,-5.97,-6.01,0,*51
1487635467.37,19046,11.88,72594.3,-5.43,-6.05,-5.97,0,*50
1487635468.6,19047,11.88,72596.5,-5.45,-6.09,-6.09,0,*5F
1487635469.82,19048,11.88,72588.8,-5.45,-5.97,-5.97,0,*50
1487635471.08,19049,11.81,72550.0,-5.45,-5.97,-5.89,0,*5E
1487635472.33,19050,11.88,72544.5,-5.45,-5.89,-5.97,0,*56
1487635473.61,19051,11.88,72574.5,-5.45,-5.85,-5.89,0,*54
1487635474.87,19052,11.88,72592.5,-5.43,-5.81,-5.85,0,*59
1487635476.12,19053,11.88,72564.0,-5.43,-5.85,-5.85,0,*5C
1487635477.38,19054,11.88,72538.5,-5.43,-5.81,-5.85,0,*5F
1487635478.62,19055,11.81,72564.8,-5.43,-5.81,-5.73,0,*57
1487635479.86,19056,11.88,72566.3,-5.43,-5.73,-5.73,0,*59
1487635481.1,19057,11.88,72586.8,-5.43,-5.69,-5.55,0,*57
1487635482.32,19058,11.88,72586.3,-5.43,-5.61,-5.55,0,*50
1487635483.58,19059,11.88,72592.3,-5.41,-5.61,-5.55,0,*53
1487635484.81,19060,11.81,72576.5,-5.41,-5.55,-5.43,0,*59
1487635486.01,19061,11.88,72586.3,-5.39,-5.51,-5.43,0,*53
1487635487.2,19062,11.88,72574.3,-5.39,-5.51,-5.43,0,*50
1487635488.4,19063,11.88,72538.8,-5.39,-5.51,-5.39,0,*5C
1487635489.59,19064,11.88,72534.3,-5.39,-5.43,-5.39,0,*58
1487635490.81,19065,11.88,72542.0,-5.35,-5.35,-5.31,0,*5C
1487635492.07,19066,11.88,72526.5,-5.35,-5.31,-5.31,0,*5B
1487635493.26,19067,11.88,72562.5,-5.35,-5.39,-5.39,0,*5A
1487635494.54,19068,11.88,72552.0,-5.33,-5.19,-5.07,0,*5C
1487635495.79,19069,11.88,72532.8,-5.35,-5.07,-5.07,0,*54
1487635497.07,19070,11.88,72590.8,-5.33,-5.23,-5.23,0,*5A
1487635498.35,19071,11.88,72580.8,-5.33,-5.31,-5.23,0,*58
1487635499.63,19072,11.88,72584.0,-5.33,-5.31,-5.31,0,*58
1487635500.9,19073,11.88,72576.8,-5.33,-5.31,-5.31,0,*59
1487635502.12,19074,11.88,72524.3,-5.33,-5.39,-5.39,0,*5E
1487635503.34,19075,11.88,72508.0,-5.33,-5.47,-5.47,0,*5F
1487635504.56,19076,11.88,72508.5,-5.33,-5.47,-5.47,0,*5C
1487635505.78,19077,11.88,72538.5,-5.33,-5.47,-5.47,0,*5D
1487635507.01,19078,11.88,72516.0,-5.31,-5.47,-5.47,0,*50
1487635508.23,19079,11.88,72540.0,-5.31,-5.43,-5.43,0,*51
1487635509.45,19080,11.88,72576.8,-5.31,-5.43,-5.47,0,*53
1487635510.65,19081,11.88,72580.0,-5.29,-5.43,-5.47,0,*5B
1487635511.86,19082,11.88,72594.3,-5.29,-5.47,-5.47,0,*5C
1487635513.06,19083,11.88,72554.0,-5.29,-5.47,-5.47,0,*5D
1487635514.27,19084,11.88,72520.5,-5.29,-5.47,-5.47,0,*5A
1487635515.48,19085,11.88,72530.0,-5.29,-5.47,-5.55,0,*58
1487635516.72,19086,11.88,72512.0,-5.31,-5.47,-5.55,0,*52
1487635517.93,19087,11.88,72522.8,-5.29,-5.47,-5.55,0,*5A
1487635519.16,19088,11.88,72522.8,-5.29,-5.61,-5.55,0,*51
1487635520.39,19089,11.88,72550.3,-5.29,-5.61,-5.55,0,*50
1487635521.63,19090,11.81,72526.8,-5.27,-5.51,-5.55,0,*55
1487635522.9,19091,11.88,72532.3,-5.27,-5.65,-5.65,0,*50
1487635524.18,19092,11.88,72538.3,-5.27,-5.69,-5.65,0,*5F
1487635525.45,19093,11.88,72530.3,-5.27,-5.65,-5.65,0,*52
1487635526.71,19094,11.88,72564.8,-5.27,-5.65,-5.55,0,*56
1487635527.98,19095,11.88,72548.3,-5.27,-5.69,-5.65,0,*58
1487635529.26,19096,11.88,72554.0,-5.27,-5.69,-5.69,0,*57
1487635530.54,19097,11.88,72556.8,-5.27,-5.69,-5.69,0,*56
1487635531.79,19098,11.88,72546.0,-5.27,-5.69,-5.55,0,*56
1487635533.04,19099,11.88,72552.5,-5.25,-5.69,-5.69,0,*5A
1487635534.32,19100,11.88,72582.8,-5.27,-5.69,-5.65,0,*55
1487635535.57,19101,11.88,72578.5,-5.25,-5.69,-5.69,0,*5A
1487635536.85,19102,11.88,72578.8,-5.27,-5.81,-5.81,0,*5B
1487635538.1,19103,11.88,72574.8,-5.25,-5.77,-5.69,0,*57
1487635539.38,19104,11.88,72568.0,-5.27,-5.65,-5.65,0,*5D
1487635540.65,19105,11.88,72582.3,-5.27,-5.69,-5.69,0,*5C
1487635541.9,19106,11.81,72574.3,-5.25,-5.77,-5.77,0,*5D
1487635543.15,19107,11.88,72564.0,-5.25,-5.77,-5.77,0,*5C
1487635544.43,19108,11.88,72590.5,-5.27,-5.69,-5.69,0,*51
1487635545.68,19109,11.88,72572.8,-5.21,-5.65,-5.61,0,*52
1487635546.94,19110,11.88,72562.8,-5.21,-5.61,-5.61,0,*5E
1487635548.16,19111,11.88,72552.0,-5.25,-5.65,-5.43,0,*5F
1487635549.39,19112,11.88,72552.5,-5.25,-5.65,-5.51,0,*5F
1487635550.59,19113,11.88,72574.5,-5.25,-5.55,-5.43,0,*5E
1487635551.8,19114,11.88,72566.0,-5.25,-5.51,-5.43,0,*5D
1487635553.02,19115,11.88,72576.0,-5.27,-5.51,-5.39,0,*53
1487635554.25,19116,11.88,72610.3,-5.25,-5.39,-5.31,0,*54
1487635555.53,19117,11.88,72598.0,-5.19,-5.23,-5.19,0,*5B
1487635556.79,19118,11.88,72584.3,-5.21,-5.27,-5.19,0,*5B
1487635558.04,19119,11.88,72572.5,-5.21,-5.27,-5.23,0,*53
1487635559.3,19120,11.88,72542.5,-5.21,-5.23,-5.23,0,*5D
1487635560.56,19121,11.88,72556.8,-5.21,-5.27,-5.23,0,*58
1487635561.82,19122,11.88,72598.5,-5.21,-5.27,-5.23,0,*5B
1487635563.09,19123,11.88,72604.8,-5.19,-5.19,-5.19,0,*55
1487635564.37,19124,11.88,72546.8,-5.19,-5.11,-5.27,0,*57
1487635565.64,19125,11.88,72526.3,-5.19,-5.11,-5.19,0,*5B
1487635566.92,19126,11.88,72526.3,-5.19,-5.11,-5.19,0,*58
1487635568.2,19127,11.88,72524.0,-5.19,-5.27,-5.27,0,*51
1487635569.45,19128,11.88,72556.5,-5.17,-5.15,-5.07,0,*53
1487635570.71,19129,11.88,72558.5,-5.17,-5.07,-5.07,0,*51
1487635571.96,19130,11.88,72544.0,-5.13,-5.03,-5.03,0,*5D
1487635573.22,19131,11.88,72558.8,-5.13,-5.15,-5.15,0,*5C
1487635574.47,19132,11.88,72548.0,-5.13,-5.19,-5.19,0,*5F
1487635575.72,19133,11.88,72560.0,-5.13,-5.23,-5.19,0,*57
1487635576.97,19134,11.88,72566.5,-5.13,-5.27,-5.19,0,*54
1487635578.22,19135,11.88,72558.8,-5.13,-5.11,-5.11,0,*58
1487635579.49,19136,11.88,72550.3,-5.11,-5.19,-5.15,0,*55
1487635580.75,19137,11.88,72554.0,-5.09,-5.15,-5.11,0,*55
1487635582.02,19138,11.88,72532.3,-5.11,-5.27,-5.27,0,*57
1487635583.3,19139,11.88,72600.3,-5.11,-5.31,-5.27,0,*51
1487635584.56,19140,11.88,72576.5,-5.09,-5.23,-5.23,0,*51
1487635585.83,19141,11.88,72550.3,-5.11,-5.27,-5.19,0,*54
1487635587.1,19142,11.88,72566.5,-5.11,-5.27,-5.15,0,*5B
1487635588.35,19143,11.88,72590.8,-5.09,-4.85,-4.81,0,*56
1487635589.55,19144,11.88,72556.5,-5.09,-4.57,-4.57,0,*55
1487635590.77,19145,11.88,72586.3,-5.07,-4.65,-4.57,0,*5B
1487635592.03,19146,11.88,72566.5,-5.07,-4.77,-4.77,0,*59
1487635593.3,19147,11.88,72582.5,-5.07,-4.81,-4.81,0,*58
1487635594.54,19148,11.88,72564.5,-5.05,-4.81,-4.77,0,*5C
1487635595.79,19149,11.88,72540.0,-5.05,-4.89,-4.93,0,*5F
1487635597.04,19150,11.88,72540.3,-5.05,-5.03,-4.93,0,*54
1487635598.25,19151,11.88,72532.3,-5.03,-4.99,-4.99,0,*5B
1487635599.51,19152,11.88,72580.0,-5.05,-5.07,-5.07,0,*5E
1487635600.79,19153,11.88,72578.5,-5.03,-5.15,-5.19,0,*55
1487635602.03,19154,11.88,72586.0,-5.03,-5.39,-5.31,0,*56
1487635603.29,19155,11.88,72576.8,-5.05,-5.31,-5.31,0,*59
1487635604.54,19156,11.88,72534.0,-5.05,-5.19,-5.19,0,*5A
1487635605.82,19157,11.81,72582.5,-5.03,-5.19,-5.15,0,*51
1487635607.09,19158,11.88,72564.0,-5.03,-5.15,-5.15,0,*52
1487635608.37,19159,11.88,72566.3,-5.03,-5.15,-5.15,0,*53
1487635609.64,19160,11.88,72590.8,-5.03,-5.15,-5.15,0,*59
1487635610.89,19161,11.88,72556.8,-5.03,-5.07,-4.99,0,*5E
1487635612.14,19162,11.88,72524.0,-5.01,-5.07,-5.07,0,*59
1487635613.42,19163,11.88,72524.5,-5.03,-5.07,-5.07,0,*5A
1487635614.67,19164,11.88,72502.0,-5.01,-5.07,-5.07,0,*5F
1487635615.92,19165,11.88,72558.5,-5.01,-5.15,-5.15,0,*5E
1487635617.17,19166,11.88,72562.5,-5.01,-5.15,-5.15,0,*5D
1487635618.42,19167,11.88,72556.3,-5.01,-5.15,-5.15,0,*5C
1487635619.67,19168,11.88,72596.3,-5.01,-5.15,-5.15,0,*53
1487635620.94,19169,11.88,72566.3,-4.97,-4.93,-4.93,0,*5C
1487635622.2,19170,11.88,72576.3,-4.97,-4.93,-4.93,0,*54
1487635623.44,19171,11.88,72586.8,-4.95,-4.93,-4.93,0,*57
1487635624.72,19172,11.88,72586.5,-4.97,-5.03,-5.03,0,*56
1487635626.0,19173,11.81,72590.0,-4.97,-5.03,-5.03,0,*57
1487635627.25,19174,11.88,72570.5,-4.95,-5.11,-5.11,0,*52
1487635628.5,19175,11.88,72544.5,-4.95,-5.15,-5.15,0,*53
1487635629.75,19176,11.88,72558.5,-4.95,-5.27,-5.23,0,*54
1487635631.0,19177,11.88,72574.3,-4.95,-5.23,-5.23,0,*51
1487635632.22,19178,11.88,72580.8,-4.95,-5.35,-5.27,0,*5D
1487635633.48,19179,11.88,72556.8,-4.95,-5.27,-5.23,0,*5B
1487635634.72,19180,11.88,72536.5,-4.95,-5.11,-5.15,0,*5D
1487635636.0,19181,11.88,72554.0,-4.93,-5.19,-5.07,0,*51
1487635637.25,19182,11.88,72552.8,-4.95,-5.03,-4.93,0,*53
1487635638.49,19183,11.88,72576.5,-4.95,-5.03,-4.93,0,*52
1487635639.71,19184,11.88,72578.3,-4.93,-4.57,-4.45,0,*58
1487635640.94,19185,11.88,72588.8,-4.93,-4.41,-4.41,0,*5A
1487635642.13,19186,11.88,72586.3,-4.91,-4.41,-4.33,0,*5E
1487635643.35,19187,11.88,72552.0,-4.89,-4.53,-4.61,0,*52
1487635644.58,19188,11.88,72580.3,-4.89,-4.65,-4.65,0,*5C
1487635645.84,19189,11.88,72542.5,-4.89,-4.77,-4.73,0,*59
1487635647.11,19190,11.88,72540.8,-4.89,-4.93,-4.85,0,*52
1487635648.36,19191,11.88,72530.8,-4.87,-4.89,-4.85,0,*56
1487635649.58,19192,11.88,72550.8,-4.87,-4.73,-4.61,0,*5A
1487635650.77,19193,11.88,72562.8,-4.87,-4.41,-4.49,0,*50
1487635652.04,19194,11.88,72566.5,-4.85,-4.73,-4.73,0,*5D
1487635653.31,19195,11.88,72540.5,-4.85,-4.89,-4.89,0,*5C
1487635654.54,19196,11.88,72518.0,-4.83,-5.03,-4.99,0,*5B
1487635655.78,19197,11.88,72532.5,-4.83,-5.11,-5.03,0,*5B
1487635657.0,19198,11.88,72568.8,-4.85,-4.99,-4.99,0,*51
1487635658.27,19199,11.88,72590.8,-4.85,-4.81,-4.81,0,*50
1487635659.51,19200,11.88,72590.0,-4.83,-4.73,-4.73,0,*55
1487635660.75,19201,11.88,72588.5,-4.83,-4.73,-4.73,0,*54
1487635662.02,19202,11.88,72594.8,-4.81,-4.85,-4.85,0,*55
1487635663.26,19203,11.88,72578.8,-4.81,-5.19,-4.99,0,*5D
1487635664.45,19204,11.88,72566.0,-4.79,-5.35,-5.35,0,*54
1487635665.67,19205,11.88,72592.3,-4.81,-5.43,-5.35,0,*53
1487635666.95,19206,11.81,72572.8,-4.81,-5.31,-5.31,0,*51
1487635668.2,19207,11.88,72572.0,-4.79,-5.31,-5.23,0,*54
1487635669.48,19208,11.88,72578.5,-4.81,-5.31,-5.23,0,*5C
1487635670.73,19209,11.88,72600.8,-4.79,-5.31,-5.23,0,*5A
1487635672.01,19210,11.88,72606.8,-4.81,-5.23,-5.11,0,*57
1487635673.26,19211,11.88,72612.0,-4.79,-5.19,-5.11,0,*58
1487635674.53,19212,11.88,72600.0,-4.81,-5.23,-5.11,0,*55
1487635675.81,19213,11.88,72602.5,-4.81,-5.23,-5.11,0,*54
1487635677.09,19214,11.88,72600.3,-4.81,-5.23,-5.31,0,*51
1487635678.34,19215,11.88,72574.5,-4.79,-5.31,-5.31,0,*54
1487635679.56,19216,11.88,72580.5,-4.79,-5.35,-5.31,0,*53
1487635680.78,19217,11.88,72624.3,-4.81,-5.35,-5.35,0,*51
1487635681.98,19218,11.88,72610.3,-4.79,-5.55,-5.55,0,*59
1487635683.21,19219,11.88,72576.5,-4.79,-5.61,-5.55,0,*5F
1487635684.45,19220,11.88,72574.0,-4.79,-5.61,-5.61,0,*52
1487635685.66,19221,11.88,72586.5,-4.79,-5.55,-5.55,0,*53
1487635686.86,19222,11.88,72584.3,-4.79,-5.55,-5.55,0,*50
1487635688.14,19223,11.81,72572.8,-4.81,-5.61,-5.61,0,*56
1487635689.34,19224,11.88,72580.3,-4.79,-5.55,-5.55,0,*56
1487635690.56,19225,11.88,72572.5,-4.79,-5.61,-5.55,0,*50
1487635691.81,19226,11.88,72598.0,-4.79,-5.61,-5.61,0,*54
1487635693.06,19227,11.81,72594.8,-4.79,-5.61,-5.61,0,*55
1487635694.33,19228,11.88,72588.3,-4.81,-5.61,-5.61,0,*5D
1487635695.58,19229,11.81,72584.0,-4.79,-5.61,-5.61,0,*5B
1487635696.85,19230,11.88,72616.5,-4.77,-5.61,-5.61,0,*5D
1487635698.12,19231,11.88,72610.0,-4.81,-5.65,-5.65,0,*55
1487635699.37,19232,11.81,72606.3,-4.79,-5.65,-5.65,0,*51
1487635700.61,19233,11.88,72608.0,-4.79,-5.73,-5.65,0,*57
1487635701.85,19234,11.81,72604.5,-4.79,-5.77,-5.73,0,*53
1487635703.09,19235,11.88,72594.8,-4.79,-5.65,-5.65,0,*56
1487635704.33,19236,11.88,72594.0,-4.79,-5.65,-5.73,0,*52
1487635705.58,19237,11.88,72588.0,-4.79,-5.85,-5.77,0,*59
1487635706.85,19238,11.81,72588.3,-4.81,-5.85,-5.73,0,*55
1487635708.1,19239,11.88,72622.5,-4.79,-5.85,-5.73,0,*53
1487635709.37,19240,11.88,72622.8,-4.81,-5.85,-5.77,0,*5E
1487635710.65,19241,11.81,72614.0,-4.81,-5.89,-5.85,0,*5E
1487635711.92,19242,11.81,72606.0,-4.81,-5.89,-5.85,0,*5D
1487635713.2,19243,11.88,72602.5,-4.81,-5.89,-5.85,0,*5C